Regional Weather Roundup
Issued by NWS

Home | Current Version | Previous Version | Text Only | Print | Product List | Glossary On
Versions: 1 2 3 4 5 6 7 8 9 10 11 12 13 14 15 16 17 18 19 20 21 22 23 24 25 26 27 28 29 30 31 32 33 34 35 36 37 38 39 40 41 42 43 44 45 46 47 48 49 50
000
ASUS43 KBIS 242302
RWRND

NORTH DAKOTA REGIONAL WEATHER ROUNDUP
NATIONAL WEATHER SERVICE BISMARCK ND
600 PM CDT FRI MAR 24 2017

NOTE: "FAIR" INDICATES FEW OR NO CLOUDS BELOW 12,000 FEET WITH NO
SIGNIFICANT WEATHER AND/OR OBSTRUCTIONS TO VISIBILITY.


NDZ001>003-009>011-017-250000-
NORTHWEST NORTH DAKOTA

CITY           SKY/WX    TMP DP  RH WIND       PRES   REMARKS
WILLISTON      FAIR      57  32  38 E18       29.99F
MINOT          FAIR      39  29  67 E17       30.13F
MINOT AFB      SUNNY     37  29  75 SE15      30.12F
$$

NDZ018>021-031>035-040>046-250000-
SOUTHWEST NORTH DAKOTA

CITY           SKY/WX    TMP DP  RH WIND       PRES   REMARKS
BISMARCK       FAIR      46  34  62 E13       30.15S
DICKINSON      PTSUNNY   54  32  43 SE10      30.02F
GARRISON         N/A     40  31  70 E16       30.11F
HETTINGER ARPT SUNNY     58  34  40 SE14      30.06F
$$

NDZ004>008-012>016-024-026-027-054-250000-
NORTHEAST NORTH DAKOTA

CITY           SKY/WX    TMP DP  RH WIND       PRES   REMARKS
GRAND FORKS    CLOUDY    36  28  73 N9        30.22S
GRND FRKS AFB  CLOUDY    34  27  75 NE8       30.23R
DEVILS LAKE    CLOUDY    32  26  78 NE9       30.20F
$$

NDZ022-023-025-028>030-036>039-047>053-250000-
SOUTHEAST NORTH DAKOTA

CITY           SKY/WX    TMP DP  RH WIND       PRES   REMARKS
FARGO          PTSUNNY   39  32  76 N13       30.19S
JAMESTOWN      CLOUDY    34  29  82 NE9       30.18S
$$




USA.gov is the U.S. government's official web portal to all federal, state and local government web resources and services.